You are not logged in, Click here to log in
ICAO: LTBA Country: 土耳其 位於伊斯坦堡市中心西南15公里
Latitude: 40.9761 Longitude: 28.8142
Total Arrivals: 21 Total Departures: 20
Latest Arrival: K6T93 (HECA-LTBA)Jason. Li Latest Departure: TK1861K (LTBA-LIRF)Jason. Li
Scenery:
METAR : LTBA 151820Z 03010KT 350V050 CAVOK 21/13 Q1022 NOSIG RMK RWY17L 03010KT 350V060 RWY05 02012KT RWY23 04009KT

阿塔圖克國際機場IST